"Pseudo-MPEC" for ZTF08Ye

Created 2019 Oct 16 13:07:19 UT using Find_Orb

Click here for an explanation of pseudo-MPECs

 
 Astrometry: 
     ZTF08Ye  C2019 10 07.32983002 59 50.12 +61 34 48.6 FixDup   20.16rUNEOCPI41
     ZTF08Ye  C2019 10 07.32983002 59 50.12 +61 34 48.6 Duplicat!20.16rUNEOCPI41
     ZTF08Ye  C2019 10 07.36851002 59 49.72 +61 34 53.7    ~AA47 19.92rUNEOCPI41
     ZTF08Ye  C2019 10 07.40500002 59 49.38 +61 34 57.6    ~AA47 20.40gUNEOCPI41
     ZTF08Ye  C2019 10 08.33263002 59 43.56 +61 36 31.0    ~AA47 20.46gUNEOCPI41
     ZTF08Ye  C2019 10 08.39195902 59 42.78 +61 36 36.8    ~AA47 20.56gUNEOCPI41
     ZTF08Ye  C2019 10 08.42813002 59 42.24 +61 36 39.7    ~AA47 20.00rUNEOCPI41
     ZTF08Ye KC2019 10 13yvpD@hIIKM[s$@f4P1uI:]7Astrometry)=Yb6Kredacted;-2K^H36
     ZTF08Ye KC2019 10 13\I$$LM*yb#W]Cl3clickUA]hereoXNRva:f3x8`5;mgkwf-TxjRjH36
     ZTF08Ye KC2019 10 13$-e;VCCbs*for_qX8/r'J6tk[L2Cexplanation03XTk??,O)7j4H36
     ZTF08Ye  C2019 10 16.29257102 56 57.66 +61 31 13.7    ~AG87 20.0 GVNEOCPH01
     ZTF08Ye  C2019 10 16.31591102 56 56.77 +61 31 09.8    ~AG87 19.9 GVNEOCPH01
     ZTF08Ye  C2019 10 16.31907802 56 56.65 +61 31 09.3    ~AG87 19.4 GVNEOCPH01
     ZTF08Ye  C2019 10 16.32343102 56 56.47 +61 31 08.6    ~AG87 19.7 GVNEOCPH01

Station data:
(H01) Magdalena Ridge Observatory, Socorro  (N33.984833 W107.189333)  US/New
   Mexico.  Observers W. H. Ryan, E. V. Ryan. Measurer W. H. Ryan. 2.4-m
   f/8.9 reflector + CCD.
(H36) Sandlot Observatory, Scranton  (N38.797693 W95.706400)  US/Kansas.
   Observer G. Hug. 0.56-m reflector + CCD.
(I41) Palomar Mountain--ZTF  (N33.357340 W116.859780)  US/California. 1.2-m
   f/2.44 Oschin Schmidt + CCD.

Orbital elements:  ZTF08Ye
   Perihelion 2019 Oct 16.452701 +/- 6.82 TT = 10:51:53 (JD 2458772.952701)
Epoch 2019 Oct 16.0 TT = JDT 2458772.5   Earth MOID: 0.9876   AutoNEOCP
M 359.89708699 +/- 1.5              (J2000 ecliptic)
n   0.22733127 +/- 0.00214          Peri.  126.53207 +/- 3.3
a   2.65886688 +/- 0.0167           Node   269.98443 +/- 0.48
e   0.2942634 +/- 0.00433           Incl.   30.11281 +/- 0.19
P   4.34                   H 17.1   G  0.15   U  8.7  
q 1.87645941 +/- 0.00183    Q 3.44127436 +/- 0.0327
13 of 14 observations 2019 Oct. 7-16; mean residual 0".19
Residuals in arcseconds: 
191007 I41  .01-  .15-    191008 I41  .08+  .38+    191016 H01  .05-  .08+    
191007 I41( .01-  .15-)   191008 I41  .18-  .27+    191016 H01  .01-  .01+    
191007 I41  .09-  .00     191013 H36  .22+  .38-    191016 H01  .00   .04+    
191007 I41  .21+  .44-    191013 H36  .28-  .00     191016 H01  .08-  .07+    
191008 I41  .11-  .20+    191013 H36  .27+  .01+    

Ephemerides (geocentric):
Date (UTC) HH   RA              Dec         delta   r     elong  mag " sig PA
---- -- -- --  -------------   -----------  ------ ------ -----  --- ---- ---
2019 10 16 13  02 56 49.055   +61 30 25.85  1.1218 1.8765 124.6 19.9 .149 175
2019 10 16 14  02 56 47.654   +61 30 18.18  1.1215 1.8765 124.6 19.9 .154 175
2019 10 16 15  02 56 46.248   +61 30 10.45  1.1213 1.8765 124.6 19.9 .159 175
2019 10 16 16  02 56 44.838   +61 30 02.66  1.1210 1.8765 124.6 19.9 .165 175
2019 10 16 17  02 56 43.422   +61 29 54.81  1.1208 1.8765 124.7 19.9 .170 176
2019 10 16 18  02 56 42.002   +61 29 46.89  1.1205 1.8765 124.7 19.9 .175 176
2019 10 16 19  02 56 40.577   +61 29 38.91  1.1203 1.8765 124.7 19.9 .181 176
2019 10 16 20  02 56 39.148   +61 29 30.87  1.1200 1.8765 124.8 19.9 .186 176
2019 10 16 21  02 56 37.713   +61 29 22.77  1.1198 1.8765 124.8 19.9 .191 176
2019 10 16 22  02 56 36.274   +61 29 14.60  1.1196 1.8765 124.8 19.9 .197 176
2019 10 16 23  02 56 34.830   +61 29 06.37  1.1193 1.8765 124.8 19.9 .202 176
2019 10 17 00  02 56 33.381   +61 28 58.07  1.1191 1.8765 124.9 19.9 .207 176
2019 10 17 01  02 56 31.927   +61 28 49.72  1.1188 1.8765 124.9 19.9 .213 176
2019 10 17 02  02 56 30.469   +61 28 41.30  1.1186 1.8765 124.9 19.9 .218 176
2019 10 17 03  02 56 29.006   +61 28 32.81  1.1183 1.8765 124.9 19.9 .224 176
2019 10 17 04  02 56 27.538   +61 28 24.27  1.1181 1.8765 125.0 19.9 .229 176
2019 10 17 05  02 56 26.066   +61 28 15.66  1.1179 1.8765 125.0 19.9 .235 175
2019 10 17 06  02 56 24.588   +61 28 06.98  1.1176 1.8765 125.0 19.9 .240 175
2019 10 17 07  02 56 23.106   +61 27 58.25  1.1174 1.8765 125.0 19.9 .246 175
2019 10 17 08  02 56 21.619   +61 27 49.45  1.1171 1.8765 125.1 19.9 .251 175
2019 10 17 09  02 56 20.128   +61 27 40.59  1.1169 1.8765 125.1 19.9 .257 175
2019 10 17 10  02 56 18.632   +61 27 31.66  1.1167 1.8765 125.1 19.9 .262 175
2019 10 17 11  02 56 17.131   +61 27 22.67  1.1164 1.8765 125.2 19.9 .268 175
2019 10 17 12  02 56 15.626   +61 27 13.61  1.1162 1.8765 125.2 19.9 .274 175
2019 10 17 13  02 56 14.115   +61 27 04.50  1.1159 1.8765 125.2 19.9 .279 175
2019 10 17 14  02 56 12.601   +61 26 55.32  1.1157 1.8765 125.2 19.9 .285 175
2019 10 17 15  02 56 11.081   +61 26 46.07  1.1154 1.8765 125.3 19.9 .290 175
2019 10 17 16  02 56 09.557   +61 26 36.76  1.1152 1.8765 125.3 19.9 .296 175
2019 10 17 17  02 56 08.028   +61 26 27.39  1.1150 1.8765 125.3 19.9 .302 175
2019 10 17 18  02 56 06.495   +61 26 17.95  1.1147 1.8765 125.3 19.9 .307 175
2019 10 17 19  02 56 04.957   +61 26 08.45  1.1145 1.8765 125.4 19.9 .313 175
2019 10 17 20  02 56 03.414   +61 25 58.89  1.1142 1.8765 125.4 19.9 .319 175
2019 10 17 21  02 56 01.867   +61 25 49.26  1.1140 1.8765 125.4 19.9 .324 174
2019 10 17 22  02 56 00.315   +61 25 39.57  1.1138 1.8765 125.5 19.9 .330 174
2019 10 17 23  02 55 58.759   +61 25 29.81  1.1135 1.8765 125.5 19.9 .336 174
2019 10 18 00  02 55 57.198   +61 25 19.99  1.1133 1.8765 125.5 19.8 .342 174
2019 10 18 01  02 55 55.632   +61 25 10.10  1.1131 1.8765 125.5 19.8 .347 174
2019 10 18 02  02 55 54.062   +61 25 00.15  1.1128 1.8765 125.6 19.8 .353 174
2019 10 18 03  02 55 52.487   +61 24 50.14  1.1126 1.8765 125.6 19.8 .359 174
2019 10 18 04  02 55 50.908   +61 24 40.06  1.1123 1.8765 125.6 19.8 .364 174
2019 10 18 05  02 55 49.324   +61 24 29.91  1.1121 1.8765 125.6 19.8 .370 174
2019 10 18 06  02 55 47.736   +61 24 19.70  1.1119 1.8765 125.7 19.8 .376 174
2019 10 18 07  02 55 46.143   +61 24 09.43  1.1116 1.8765 125.7 19.8 .382 173
2019 10 18 08  02 55 44.545   +61 23 59.09  1.1114 1.8765 125.7 19.8 .388 173
2019 10 18 09  02 55 42.944   +61 23 48.69  1.1111 1.8765 125.8 19.8 .393 173
2019 10 18 10  02 55 41.337   +61 23 38.22  1.1109 1.8765 125.8 19.8 .399 173
2019 10 18 11  02 55 39.726   +61 23 27.69  1.1107 1.8765 125.8 19.8 .405 173
2019 10 18 12  02 55 38.111   +61 23 17.09  1.1104 1.8765 125.8 19.8 .411 173